West Palm Beach, FL

6:42 PM EDT on August 25, 2016 (GMT -0400)
Palm Beach International

Weather History for KPBI - March, 2011

Change the Weather History Date:

Tuesday, March 1, 2011

  Actual Average Record
Temperature  
Mean Temperature 76 °F 69 °F  
Max Temperature 88 °F 78 °F 88 °F (2011)
Min Temperature 64 °F 61 °F 36 °F (1984)
Degree Days  
Heating Degree Days 0 1  
Month to date heating degree days 0 1  
Since 1 July heating degree days 303 206  
Cooling Degree Days 11 5  
Month to date cooling degree days 11 5  
Year to date cooling degree days 292 240  
Growing Degree Days 26 (Base 50)    
Moisture  
Dew Point 65 °F    
Average Humidity 70    
Maximum Humidity 97    
Minimum Humidity 42    
Precipitation  
Precipitation T in 0.12 in 2.52 in (1980)
Month to date precipitation T 0.12  
Year to date precipitation 2.65 6.07  
Snow  
Snow 0.00 in - - ()
Month to date snowfall 0.0  
Since 1 July snowfall 0.0  
Snow Depth 0.00 in    
Sea Level Pressure  
Sea Level Pressure 30.04 in    
Wind  
Wind Speed 9 mph (WNW)    
Max Wind Speed 26 mph    
Max Gust Speed 31 mph    
Visibility 10 miles    
Events      
T = Trace of Precipitation, MM = Missing Value Source: NWS Daily Summary

Daily Weather History Graph

Daily Weather History Graph

Search for Another Location

Airport or City:

Trip Planner

Search our weather history database for the weather conditions in past years. The results will help you decide how hot, cold, wet, or windy it might be!

Date:

Astronomy

Mar. 01, 2011 Rise Set
Actual Time 6:44 AM EST 6:21 PM EST
Civil Twilight 6:21 AM EST 6:44 PM EST
Nautical Twilight 5:54 AM EST 7:11 PM EST
Astronomical Twilight 5:27 AM EST 7:38 PM EST
Moon 4:36 AM EST (3/1) 3:48 PM EST (3/1)
Length of Visible Light 12h 23m
Length of Day
11h 37m
Waning Crescent, 9% of the Moon is Illuminated
Mar 1
Waning Crescent
Mar 4
New
Mar 12
First Quarter
Mar 19
Full
Mar 26
Last Quarter

Hourly Weather History & Observations

Time (EST) Temp. Heat Index Dew Point Humidity Pressure Visibility Wind Dir Wind Speed Gust Speed Precip Events Conditions
12:53 AM 69.1 °F - 66.0 °F 90% 30.08 in 10.0 mi West 3.5 mph - N/A   Partly Cloudy
1:53 AM 66.0 °F - 64.0 °F 93% 30.06 in 10.0 mi Calm Calm - N/A   Partly Cloudy
2:53 AM 66.9 °F - 64.9 °F 93% 30.05 in 10.0 mi South 3.5 mph - N/A   Clear
3:53 AM 66.9 °F - 64.9 °F 93% 30.03 in 10.0 mi SSW 5.8 mph - N/A   Clear
4:53 AM 66.9 °F - 64.9 °F 93% 30.02 in 10.0 mi WSW 8.1 mph - N/A   Clear
5:53 AM 66.9 °F - 64.9 °F 93% 30.03 in 10.0 mi WSW 6.9 mph - N/A   Partly Cloudy
6:53 AM 66.0 °F - 64.9 °F 96% 30.03 in 10.0 mi SW 3.5 mph - N/A   Partly Cloudy
7:53 AM 70.0 °F - 68.0 °F 93% 30.06 in 10.0 mi West 4.6 mph - N/A   Partly Cloudy
8:28 AM 71.6 °F - 69.8 °F 94% 30.07 in 10.0 mi West 6.9 mph - N/A   Scattered Clouds
8:53 AM 73.9 °F - 69.1 °F 85% 30.07 in 10.0 mi WSW 10.4 mph - N/A   Scattered Clouds
9:53 AM 78.1 °F - 64.0 °F 62% 30.07 in 10.0 mi WSW 12.7 mph - N/A   Partly Cloudy
10:53 AM 81.0 °F 81.9 °F 62.1 °F 52% 30.07 in 10.0 mi SW 10.4 mph - N/A   Scattered Clouds
11:53 AM 84.0 °F 84.4 °F 61.0 °F 46% 30.04 in 10.0 mi WSW 13.8 mph 19.6 mph N/A   Scattered Clouds
12:53 PM 84.9 °F 84.8 °F 60.1 °F 43% 30.01 in 10.0 mi WSW 12.7 mph 21.9 mph N/A   Scattered Clouds
1:53 PM 86.0 °F 86.1 °F 61.0 °F 43% 29.98 in 10.0 mi West 10.4 mph 16.1 mph N/A   Mostly Cloudy
2:53 PM 84.9 °F 84.8 °F 60.1 °F 43% 29.97 in 10.0 mi NW 11.5 mph - N/A   Overcast
3:53 PM 84.0 °F 84.0 °F 60.1 °F 44% 29.97 in 10.0 mi NW 11.5 mph - N/A   Overcast
4:19 PM 77.0 °F - 66.2 °F 69% 29.99 in 10.0 mi North 18.4 mph 31.1 mph N/A   Overcast
4:53 PM 73.9 °F - 68.0 °F 82% 30.01 in 9.0 mi North 13.8 mph - N/A   Overcast
5:53 PM 73.0 °F - 66.9 °F 81% 30.01 in 10.0 mi NE 9.2 mph - 0.00 in   Mostly Cloudy
6:53 PM 72.0 °F - 66.9 °F 84% 30.02 in 10.0 mi NNE 8.1 mph - N/A   Mostly Cloudy
7:16 PM 71.6 °F - 66.2 °F 83% 30.03 in 10.0 mi North 11.5 mph - N/A   Mostly Cloudy
7:42 PM 71.6 °F - 66.2 °F 83% 30.04 in 10.0 mi North 11.5 mph - N/A   Mostly Cloudy
7:53 PM 72.0 °F - 66.9 °F 84% 30.04 in 10.0 mi North 11.5 mph - N/A   Mostly Cloudy
8:14 PM 71.6 °F - 66.2 °F 83% 30.05 in 10.0 mi North 11.5 mph - N/A   Mostly Cloudy
8:53 PM 71.1 °F - 66.9 °F 87% 30.06 in 10.0 mi North 12.7 mph - N/A   Mostly Cloudy
9:53 PM 71.1 °F - 66.0 °F 84% 30.05 in 10.0 mi North 11.5 mph - N/A   Scattered Clouds
10:53 PM 69.1 °F - 64.9 °F 87% 30.06 in 10.0 mi North 11.5 mph - N/A   Mostly Cloudy
11:53 PM 69.1 °F - 64.9 °F 87% 30.05 in 10.0 mi North 8.1 mph - N/A   Overcast